Regional Weather Roundup
Issued by NWS

Home | Current Version | Previous Version | Text Only | Print | Product List | Glossary Off
Versions: 1 2 3 4 5 6 7 8 9 10 11 12 13 14 15 16 17 18 19 20 21 22 23 24 25 26 27 28

000
ASUS45 KSLC 300610
RWRUT

UTAH REGIONAL WEATHER ROUNDUP
NATIONAL WEATHER SERVICE SALT LAKE CITY UT
1200 AM MDT SAT APR 30 2016

UTZ001>011-023>025-300700-

NORTHERN UTAH

CITY           SKY/WX    TMP DP  RH WIND       PRES   REMARKS
BRIGHAM CITY   MOCLDY    46  38  74 CALM      29.87S
HILL AFB       MOCLDY    44  37  74 E10       29.86F
LOGAN          MOCLDY    41  37  86 W5        29.88S
OGDEN          PTCLDY    44  37  76 S3        29.85F
PROVO AIRPORT  MOCLDY    43  36  75 SE6       29.86F
SALT LAKE CITY PTCLDY    47  40  76 N6        29.85F
VERNAL         CLOUDY    39  30  70 E5        29.85F
WENDOVER       CLOUDY    45  39  81 W7        29.91S
HEBER CITY     CLOUDY    37  34  87 CALM      29.86F

$$

UTZ012>022-026-027-300700-

SOUTHERN/CENTRAL UTAH

CITY           SKY/WX    TMP DP  RH WIND       PRES   REMARKS
BLANDING       CLOUDY    38  35  86 CALM      29.93S
BRYCE CANYON   CLOUDY    35  31  85 W3        29.90F
CEDAR CITY     MOCLDY    39  36  89 W5        29.85F
DELTA          CLOUDY    43  39  87 SW6       29.86F
HANKSVILLE     PTCLDY    48  41  76 CALM      29.85S
MILFORD        CLOUDY    46  42  86 N9        29.86S
MOAB/CYNLANDS  CLOUDY    47  43  86 W6        29.81S
PRICE          PTCLDY    42  32  67 NE12      29.84F
ST GEORGE      CLOUDY    52  45  76 E5        29.85F
KANAB          CLOUDY    45  45 100 S7        29.91F

$$

REGIONAL REPORTS     COLORADO/ARIZONA

CITY           SKY/WX    TMP DP  RH WIND       PRES   REMARKS
CRAIG, CO      CLOUDY    34  29  82 W7        29.85S WCI  28
GRAND JUNCTION CLOUDY    44  38  79 E10       29.83F
RIFLE          CLOUDY    43  38  82 NW3       29.82F
MONTROSE       CLOUDY    44  35  70 SW5       29.86S
CORTEZ         CLEAR     33  32  96 CALM      29.87F
PAGE, AZ       CLOUDY    55  37  50 W8        29.84F
GRAND CANYON   MOCLDY    36  32  85 CALM      29.91F
KINGMAN        PTCLDY    60  33  36 S12       29.78F
FLAGSTAFF      MOCLDY    33  32  96 CALM      29.94F

$$

REGIONAL REPORTS    NEVADA/IDAHO/WYOMING

CITY           SKY/WX    TMP DP  RH WIND       PRES   REMARKS
LAS VEGAS, NV  MOCLDY    70  31  23 SW6       29.66S
ELY            CLOUDY    38  50 100 CALM      29.90S
ELKO           LGT RAIN  41  37  86 E3        29.91S
POCATELLO, ID  CLOUDY    41  38  89 N7        29.90R
BURLEY         PTCLDY    45  38  76 W9        29.88R
EVANSTON, WY   CLOUDY    34  25  69 E8        29.90S WCI  27
ROCK SPRINGS   CLOUDY    33  29  85 NE8       29.92S WCI  26
KEMMERER         N/A     32  30  93 E6        29.93S WCI  26

$$




USA.gov is the U.S. government's official web portal to all federal, state and local government web resources and services.